Home   Weather   Amsterdam   Past weeks
Flag for Netherlands

Past Weather in Amsterdam, Netherlands — Yesterday and Last 2 Weeks

Now
84 °F

Sunny.


Feels Like: 86 °F
Forecast: 91 / 66 °F
Wind: 9 mph from Northeast

Location: Amsterdam Schiphol Airport

Current Time: Jul 23, 2019 at 7:58:11 pm

Latest Report: Jul 23, 2019 at 6:55 pm


Visibility: 10 mi

Pressure: 30.04 "Hg

Humidity: 51%

Dew Point: 64 °F

Location of AmsterdamLocation

Past Weather in Amsterdam — Graph

°F

Amsterdam Temperature Yesterday

Maximum temperature yesterday: 79 °F (at 3:25 pm)
Minimum temperature yesterday: 61 °F (at 12:25 am)
Average temperature yesterday: 69 °F

High & Low Weather Summary for the Past Weeks

 TemperatureHumidityPressure
High88 °F (Jul 23, 4:55 pm)100% (Jul 12, 1:55 am)30.21 "Hg (Jul 12, 1:55 am)
Low46 °F (Jul 9, 3:25 am)38% (Jul 23, 5:25 pm)29.74 "Hg (Jul 20, 7:25 am)
Average64 °F76%30.02 "Hg
* Reported Jul 8 6:25 pm — Jul 23 6:25 pm, Amsterdam. Weather by CustomWeather, © 2019

Note: Actual official high and low records may vary slightly from our data, if they occured in-between our weather recording intervals... More about our weather records

Advertising

Amsterdam Weather History for the Previous 24 Hours

Scroll right to see more
 ConditionsComfort  
Time TempWeatherWind HumidityBarometerVisibility
6:25 pm
Tue, Jul 23
86 °FPassing clouds.7 mph49%30.04 "HgN/A
5:55 pm88 °FPassing clouds.6 mph40%30.07 "HgN/A
5:25 pm88 °FPassing clouds.5 mph38%30.07 "HgN/A
4:55 pm88 °FPassing clouds.7 mph40%30.07 "HgN/A
4:25 pm86 °FPassing clouds.6 mph40%30.09 "HgN/A
3:55 pm86 °FSunny.6 mph43%30.09 "Hg10 mi
3:25 pm86 °FPassing clouds.3 mph46%30.09 "HgN/A
2:55 pm86 °FPassing clouds.3 mph40%30.09 "HgN/A
2:25 pm86 °FPassing clouds.6 mph43%30.12 "HgN/A
1:55 pm86 °FPassing clouds.6 mph46%30.12 "HgN/A
1:25 pm84 °FPassing clouds.6 mph45%30.12 "HgN/A
12:55 pm82 °FPassing clouds.8 mph51%30.12 "HgN/A
12:25 pm82 °FPassing clouds.7 mph51%30.12 "HgN/A
11:55 am81 °FPassing clouds.7 mph54%30.15 "HgN/A
11:25 am79 °FPassing clouds.8 mph58%30.15 "HgN/A
10:55 am79 °FPassing clouds.8 mph58%30.15 "HgN/A
10:25 am77 °FPassing clouds.6 mph57%30.15 "HgN/A
9:55 am75 °FPassing clouds.7 mph57%30.15 "HgN/A
9:25 am73 °FPassing clouds.7 mph61%30.15 "HgN/A
8:55 am72 °FSunny.6 mph65%30.15 "Hg10 mi
8:25 am70 °FPassing clouds.5 mph73%30.15 "HgN/A
7:55 am68 °FSunny.3 mph78%30.15 "Hg10 mi
7:25 am64 °FSunny.1 mph88%30.15 "Hg10 mi
6:55 am63 °FPassing clouds.5 mph88%30.15 "HgN/A
6:25 am61 °FSunny.1 mph88%30.15 "Hg10 mi
5:55 am59 °FPassing clouds.3 mph88%30.15 "HgN/A
5:25 am61 °FClear.3 mph88%30.15 "Hg10 mi
4:55 am61 °FClear.3 mph88%30.15 "Hg10 mi
4:25 am59 °FClear.2 mph100%30.15 "Hg10 mi
3:55 am61 °FClear.3 mph88%30.15 "Hg10 mi
3:25 am59 °FClear.3 mph94%30.15 "Hg10 mi
2:55 am63 °FClear.2 mph88%30.18 "Hg10 mi
2:25 am63 °FClear.2 mph88%30.18 "Hg10 mi
1:55 am63 °FClear.2 mph88%30.18 "Hg10 mi
1:25 am64 °FClear.3 mph78%30.18 "Hg10 mi
12:55 am64 °FClear.2 mph83%30.18 "Hg10 mi
12:25 am64 °FClear.6 mph83%30.18 "Hg10 mi
11:55 pm
Mon, Jul 22
63 °FClear.7 mph83%30.18 "Hg10 mi
11:25 pm64 °FClear.7 mph78%30.18 "Hg10 mi
10:55 pm66 °FClear.8 mph78%30.18 "Hg10 mi
10:25 pm68 °FClear.9 mph73%30.18 "Hg10 mi
9:55 pm68 °FPassing clouds.8 mph73%30.18 "HgN/A
9:25 pm70 °FSunny.8 mph69%30.18 "Hg10 mi
8:55 pm72 °FPassing clouds.9 mph65%30.18 "HgN/A
8:25 pm73 °FPassing clouds.9 mph61%30.18 "HgN/A
7:55 pm73 °FPassing clouds.12 mph57%30.15 "HgN/A
7:25 pm75 °FSunny.14 mph54%30.18 "Hg10 mi
Weather by CustomWeather, © 2019

See weather overview